Regional Weather Roundup
Issued by NWS

Home | Current Version | Previous Version | Text Only | Print | Product List | Glossary On
Versions: 1 2 3 4 5 6 7 8 9 10 11 12 13 14 15 16 17 18 19 20 21 22 23 24 25 26 27 28 29 30 31 32 33 34 35 36 37 38 39 40 41 42 43 44 45 46 47 48 49 50
000
ASUS46 KSEW 261010
RWRWA

WASHINGTON REGIONAL WEATHER ROUNDUP
NATIONAL WEATHER SERVICE SEATTLE WA
300 AM PDT FRI AUG 26 2016

NOTE:"FAIR" INDICATES FEW OR NO CLOUDS BELOW 12,000 FEET WITH NO
SIGNIFICANT WEATHER AND/OR OBSTRUCTIONS TO VISIBILITY.

WAZ505-507>509-261100-
SEATTLE, TACOMA, EVERETT, AND VICINITY

CITY           SKY/WX    TMP DP  RH WIND       PRES   REMARKS
EVERETT        FAIR      65  51  60 CALM      29.97S
BOEING FIELD   FAIR      70  52  52 NW6       29.94F
RENTON         FAIR      65  55  70 SE3       29.94S
SEATAC AIRPORT FAIR      71  52  50 CALM      29.96F
JBLM-MCCHORD   FAIR      57  52  82 CALM      29.95S
PUYALLUP       FAIR      59  54  82 CALM      29.96S
BREMERTON      FAIR      55  48  76 CALM      30.00R
JBLM-FT LEWIS  FAIR      63  49  60 CALM      29.94F
TACOMA NARROWS FAIR      66  48  52 CALM      29.96S
$$

WAZ001-503-506-510-514-515-261100-
NORTH INTERIOR

CITY           SKY/WX    TMP DP  RH WIND       PRES   REMARKS
BELLINGHAM     FAIR      58  54  86 CALM      29.94F
FRIDAY HARBOR  FAIR      58  49  72 CALM      29.96S
EASTSOUND      FAIR      59  52  77 CALM      29.93F
PORT ANGELES   FAIR      61  49  64 SE3       29.96F
EDIZ HOOK      FAIR      58  51  79 W7        29.95F
PORT TOWNSEND  FAIR      54  50  87 CALM      29.95S
NAS WHIDBEY    FAIR      58  49  72 CALM      29.98F
ARLINGTON      FAIR      57  48  72 CALM      29.97S
BURLINGTON     CLEAR     57  54  88 CALM      29.95S
$$

WAZ020-022-039-040-504-511-512-261100-
SOUTHWEST INTERIOR

CITY           SKY/WX    TMP DP  RH WIND       PRES   REMARKS
SHELTON        FAIR      55  48  77 CALM      29.93F
OLYMPIA        FAIR      56  49  77 CALM      29.94F
CHEHALIS       FAIR      57  54  88 CALM      29.95S
KELSO          FAIR      62  53  72 CALM      29.93F
VANCOUVER      FAIR      62  51  67 CALM      29.91S
SCAPPOOSE, OR  FAIR      64  49  57 W3        29.91S
PORTLAND, OR   FAIR      65  54  67 W3        29.91F
$$

WAZ021-516-517-261100-
WASHINGTON COAST

CITY           SKY/WX    TMP DP  RH WIND       PRES   REMARKS
FORKS          FAIR      57  53  86 N3        29.94F
HOQUIAM        FAIR      57  56  96 NE3       29.94F FOG
ASTORIA, OR    FAIR      59  54  83 CALM      29.91F
$$

WAZ019-023-024-040-518-519-261100-
CASCADE MOUNTAINS AND COLUMBIA GORGE

CITY           SKY/WX    TMP DP  RH WIND       PRES   REMARKS
STAMPEDE PASS  FAIR      58  44  60 CALM      30.12F
TROUTDALE, OR  FAIR      62  52  69 CALM      29.91S
THE DALLES, OR FAIR      61  40  45 SE6       29.94S
$$

WAZ026-027-041>044-520-521-261100-
EAST SLOPES

CITY           SKY/WX    TMP DP  RH WIND       PRES   REMARKS
OMAK           FAIR      62  42  47 N5        30.00S
WENATCHEE      MOCLDY    73  45  36 NW14      29.98S
ELLENSBURG     MOCLDY    60  45  57 E3        30.00F
YAKIMA         FAIR      58  44  60 NW6       29.98F
$$

WAZ028-034-035-261100-
COLUMBIA BASIN

CITY           SKY/WX    TMP DP  RH WIND       PRES   REMARKS
EPHRATA        FAIR      63  40  42 NE8       29.96S
MOSES LAKE     FAIR      60  42  51 N3        29.97S
PASCO          FAIR      56  49  77 CALM      29.94F
HERMISTON, OR  FAIR      55  40  56 S3        29.94S
$$

WAZ036>038-261100-
NORTHEAST WASHINGTON

CITY           SKY/WX    TMP DP  RH WIND       PRES   REMARKS
SPOKANE GEIGER MOCLDY    66  40  38 E10       30.03S
SPOKANE FELTS  FAIR      59  42  53 CALM      30.03S
FAIRCHILD AFB  CLOUDY    63  39  41 E9        30.03R
COEURDALENE,ID FAIR      63  43  48 N9        30.02S
DEER PARK      MOCLDY    63  40  42 NE10      30.03S
$$

WAZ029>033-261100-
SOUTHEAST WASHINGTON

CITY           SKY/WX    TMP DP  RH WIND       PRES   REMARKS
PULLMAN        FAIR      51  33  50 CALM      30.03F
LEWISTON, ID   FAIR      64  33  31 S3        29.97F
WALLA WALLA    FAIR      61  35  37 E6        29.95F
PENDLETON, OR  FAIR      60  35  39 SE12      29.96F
$$



USA.gov is the U.S. government's official web portal to all federal, state and local government web resources and services.